Tiempo cada hora Muratkovo

Hoy, 31 Octubre, Sábado

Tiempo Temperatura Precipitaciones Viento Presión Humedad
00:00 -2°C° 0 mm 3 mps 760 mmHg 88%
01:00 -2°C° 0 mm 3 mps 759 mmHg 87%
02:00 -2°C° 0 mm 3 mps 759 mmHg 86%
03:00 -1°C° 0 mm 3 mps 759 mmHg 85%
04:00 0°C° 0 mm 3 mps 758 mmHg 83%
05:00 0°C° 0.1 mm 3 mps 758 mmHg 84%
06:00 0°C° 0.1 mm 3 mps 758 mmHg 84%
07:00 0°C° 0.1 mm 3 mps 758 mmHg 85%
08:00 +1°C° 0.1 mm 3 mps 757 mmHg 83%
09:00 +1°C° 0.1 mm 3 mps 757 mmHg 81%
10:00 +1°C° 0 mm 4 mps 757 mmHg 79%
11:00 +1°C° 0.1 mm 4 mps 757 mmHg 80%
12:00 +1°C° 0.1 mm 4 mps 756 mmHg 82%
13:00 +2°C° 0.1 mm 3 mps 756 mmHg 84%
14:00 +2°C° 0.3 mm 3 mps 756 mmHg 85%
15:00 +2°C° 0.3 mm 3 mps 756 mmHg 85%
16:00 +2°C° 0.3 mm 3 mps 756 mmHg 86%
17:00 +1°C° 0.4 mm 4 mps 756 mmHg 89%
18:00 +1°C° 0.4 mm 4 mps 755 mmHg 92%
19:00 0°C° 0.4 mm 4 mps 755 mmHg 95%
20:00 0°C° 0.1 mm 4 mps 755 mmHg 96%
21:00 +1°C° 0.1 mm 3 mps 754 mmHg 96%
22:00 +1°C° 0.1 mm 3 mps 754 mmHg 97%
23:00 +1°C° 0.9 mm 3 mps 754 mmHg 97%

Mañana, 1 Noviembre, Domingo

Tiempo Temperatura Precipitaciones Viento Presión Humedad
00:00 +1°C° 0.9 mm 3 mps 753 mmHg 97%
01:00 +1°C° 0.9 mm 3 mps 753 mmHg 97%
02:00 +1°C° 0.7 mm 3 mps 753 mmHg 97%
03:00 +1°C° 0.7 mm 3 mps 753 mmHg 97%
04:00 +2°C° 0.7 mm 3 mps 754 mmHg 97%
05:00 +1°C° 0.1 mm 3 mps 754 mmHg 97%
06:00 +1°C° 0.1 mm 3 mps 754 mmHg 97%
07:00 0°C° 0.1 mm 4 mps 755 mmHg 96%
08:00 0°C° 0 mm 4 mps 755 mmHg 90%
09:00 -1°C° 0 mm 4 mps 756 mmHg 85%
10:00 -1°C° 0 mm 4 mps 757 mmHg 79%
11:00 -1°C° 0 mm 4 mps 757 mmHg 77%
12:00 0°C° 0 mm 4 mps 758 mmHg 74%
13:00 +1°C° 0 mm 3 mps 759 mmHg 72%
14:00 0°C° 0 mm 3 mps 759 mmHg 77%
15:00 -1°C° 0 mm 2 mps 760 mmHg 81%
16:00 -1°C° 0 mm 2 mps 760 mmHg 85%
17:00 -2°C° 0 mm 2 mps 760 mmHg 86%
18:00 -2°C° 0 mm 2 mps 761 mmHg 87%
19:00 0°C° 0 mm 1 mps 761 mmHg 88%
20:00 0°C° 0 mm 1 mps 761 mmHg 88%
21:00 -1°C° 0 mm 1 mps 761 mmHg 88%
22:00 -1°C° 0 mm 1 mps 762 mmHg 88%
23:00 -1°C° 0 mm 1 mps 762 mmHg 88%

Pasado mañana, 2 Noviembre, Lunes

Tiempo Temperatura Precipitaciones Viento Presión Humedad
00:00 -1°C° 0 mm 1 mps 762 mmHg 88%
01:00 -1°C° 0 mm 1 mps 762 mmHg 88%
02:00 -1°C° 0 mm 1 mps 762 mmHg 88%
03:00 -1°C° 0 mm 1 mps 762 mmHg 88%
04:00 -1°C° 0 mm 1 mps 762 mmHg 88%
05:00 -1°C° 0 mm 1 mps 762 mmHg 88%
06:00 -1°C° 0 mm 1 mps 761 mmHg 89%
07:00 -2°C° 0 mm 1 mps 761 mmHg 89%
08:00 -1°C° 0 mm 1 mps 761 mmHg 86%
09:00 0°C° 0 mm 1 mps 761 mmHg 82%
10:00 0°C° 0 mm 1 mps 762 mmHg 78%
11:00 +1°C° 0 mm 1 mps 762 mmHg 75%
12:00 +1°C° 0 mm 1 mps 762 mmHg 71%
13:00 +2°C° 0 mm 1 mps 762 mmHg 68%
14:00 +1°C° 0 mm 1 mps 762 mmHg 72%
15:00 0°C° 0 mm 1 mps 762 mmHg 76%
16:00 0°C° 0 mm 1 mps 762 mmHg 80%
17:00 -1°C° 0 mm 1 mps 762 mmHg 82%
18:00 -1°C° 0 mm 1 mps 762 mmHg 83%
19:00 -1°C° 0 mm 1 mps 762 mmHg 84%
20:00 -1°C° 0 mm 1 mps 762 mmHg 84%
21:00 -1°C° 0 mm 1 mps 762 mmHg 84%
22:00 -1°C° 0 mm 1 mps 763 mmHg 84%
23:00 -2°C° 0 mm 1 mps 763 mmHg 84%

3 Noviembre, Martes

Tiempo Temperatura Precipitaciones Viento Presión Humedad
00:00 -2°C° 0 mm 1 mps 763 mmHg 84%
01:00 -2°C° 0 mm 1 mps 763 mmHg 85%
02:00 -2°C° 0 mm 1 mps 763 mmHg 85%
03:00 -2°C° 0 mm 1 mps 763 mmHg 85%
04:00 -2°C° 0 mm 1 mps 764 mmHg 85%
05:00 -2°C° 0 mm 1 mps 764 mmHg 85%
06:00 -2°C° 0 mm 1 mps 764 mmHg 85%
07:00 -3°C° 0 mm 1 mps 764 mmHg 85%
08:00 -2°C° 0 mm 1 mps 764 mmHg 81%
09:00 -1°C° 0 mm 1 mps 764 mmHg 76%
10:00 0°C° 0 mm 1 mps 764 mmHg 72%
11:00 +1°C° 0 mm 1 mps 764 mmHg 70%
12:00 +1°C° 0 mm 1 mps 764 mmHg 69%
13:00 +2°C° 0 mm 1 mps 764 mmHg 67%
14:00 +1°C° 0 mm 1 mps 764 mmHg 70%
15:00 +1°C° 0 mm 1 mps 764 mmHg 74%
16:00 0°C° 0 mm 1 mps 764 mmHg 77%
17:00 0°C° 0 mm 1 mps 764 mmHg 78%
18:00 0°C° 0 mm 1 mps 764 mmHg 80%
19:00 -1°C° 0 mm 1 mps 764 mmHg 81%
20:00 -1°C° 0 mm 1 mps 764 mmHg 83%
21:00 -1°C° 0 mm 1 mps 763 mmHg 86%
22:00 -1°C° 0 mm 1 mps 763 mmHg 88%
23:00 -1°C° 0 mm 1 mps 763 mmHg 87%

4 Noviembre, Miércoles

Tiempo Temperatura Precipitaciones Viento Presión Humedad
00:00 -1°C° 0 mm 1 mps 763 mmHg 87%
01:00 -1°C° 0 mm 1 mps 763 mmHg 87%
02:00 -3°C° 0 mm 2 mps 763 mmHg 84%
03:00 -3°C° 0 mm 2 mps 762 mmHg 80%
04:00 -3°C° 0 mm 2 mps 762 mmHg 77%
05:00 -3°C° 0 mm 2 mps 762 mmHg 75%
06:00 -3°C° 0 mm 2 mps 762 mmHg 72%
07:00 -3°C° 0 mm 2 mps 762 mmHg 70%
08:00 -2°C° 0 mm 2 mps 762 mmHg 67%
09:00 -2°C° 0 mm 2 mps 762 mmHg 64%
10:00 +1°C° 0 mm 1 mps 762 mmHg 61%
11:00 +1°C° 0 mm 1 mps 762 mmHg 61%
12:00 +1°C° 0 mm 2 mps 762 mmHg 60%
13:00 +1°C° 0 mm 2 mps 762 mmHg 59%
14:00 +2°C° 0 mm 1 mps 763 mmHg 62%
15:00 +2°C° 0 mm 1 mps 763 mmHg 64%
16:00 +1°C° 0 mm 1 mps 763 mmHg 67%
17:00 +1°C° 0 mm 1 mps 763 mmHg 68%
18:00 -1°C° 0 mm 2 mps 762 mmHg 69%
19:00 -1°C° 0 mm 2 mps 762 mmHg 70%
20:00 -1°C° 0 mm 2 mps 762 mmHg 68%
21:00 -1°C° 0 mm 2 mps 762 mmHg 66%
22:00 -1°C° 0 mm 2 mps 762 mmHg 64%
23:00 -2°C° 0 mm 2 mps 762 mmHg 64%

5 Noviembre, Jueves

Tiempo Temperatura Precipitaciones Viento Presión Humedad
00:00 -2°C° 0 mm 2 mps 762 mmHg 63%
01:00 -2°C° 0 mm 2 mps 761 mmHg 63%
02:00 -2°C° 0 mm 2 mps 761 mmHg 64%
03:00 -2°C° 0 mm 2 mps 761 mmHg 65%
04:00 -2°C° 0 mm 2 mps 761 mmHg 66%
05:00 -2°C° 0 mm 2 mps 761 mmHg 67%
06:00 -2°C° 0 mm 2 mps 761 mmHg 68%
07:00 -2°C° 0 mm 2 mps 760 mmHg 69%
08:00 -1°C° 0 mm 2 mps 760 mmHg 66%
09:00 +1°C° 0 mm 2 mps 760 mmHg 64%
10:00 +2°C° 0 mm 2 mps 759 mmHg 61%
11:00 +2°C° 0 mm 2 mps 759 mmHg 61%
12:00 +3°C° 0 mm 2 mps 759 mmHg 62%
13:00 +3°C° 0 mm 2 mps 758 mmHg 62%
14:00 +3°C° 0 mm 2 mps 758 mmHg 68%
15:00 +2°C° 0 mm 2 mps 758 mmHg 73%
16:00 +1°C° 0 mm 2 mps 757 mmHg 79%
17:00 +1°C° 0 mm 2 mps 757 mmHg 82%
18:00 0°C° 0 mm 3 mps 757 mmHg 85%
19:00 0°C° 0 mm 3 mps 757 mmHg 88%
20:00 0°C° 0 mm 3 mps 756 mmHg 89%
21:00 -1°C° 0 mm 3 mps 756 mmHg 90%
22:00 -1°C° 0 mm 3 mps 756 mmHg 91%
23:00 -1°C° 0 mm 3 mps 756 mmHg 92%
Mostrar más

Necesitamos Su Consentimiento

Meteoprog y nuestros Proveedores de Servicios pueden almacenar y acceder a sus datos personales como cookies, identificadores de dispositivo u otras tecnologías similares de su dispositivo y procesar dichos datos para personalizar contenido y anuncios, además de ofrecer funciones de redes sociales y analizar el tráfico.

  • Almacenar y/o acceder a información en su dispositivo

    Se puede almacenar o acceder a cookies, identificadores de dispositivo u otra información de su dispositivo para los fines anteriormente indicados.

  • Anuncios y contenido personalizados, medición de anuncios y contenido, percepciones del público, y desarrollo de productos

    Los anuncios y el contenido pueden personalizarse en base a su perfil. Se pueden añadir más datos para personalizar mejor los anuncios y contenidos. Se puede medir el rendimiento de los anuncios y contenidos. Se puede obtener la percepción sobre el público que ha visto los anuncios y contenidos. Dichos datos pueden usarse para desarrollar o mejorar la experiencia del usuario, sistemas y software.

Al hacer clic en ‘Estoy De Acuerdo’ usted permitirá el uso de las cookies, identificadores de dispositivo, balizas web u otras tecnologías similares indicadas. Su configuración puede cambiarse desde el navegador de su dispositivo.

Para ciertos fines, los intereses legítimos pueden ser considerados por encima del consentimiento. Puede leer más sobre ello en nuestra Política de Privacidad y Cookies.